Cloud_Cover
45 25 1 5 0 1 2 4 5 5 75 91 46 85 34 96 79 5 5 6 7 6 62 91 100 19 4 5 1 1 4 0 0 0 0 0 0 1 18 84 38 39 11
30 25 0 0 0 0 1 0 5 23 83 100 42 23 40 5 25 5 2 0 5 14 63 79 14 4 0 0 0 0 0 0 0 0 0 0 0 0 0 0 0 0 0
47 26 0 0 0 0 0 0 6 4 51 49 16 6 5 5 5 5 8 9 5 96 71 5 4 0 0 0 0 0 0 0 0 0 0 0 0 0 0 0 0 0 0
20 28 1 0 0 0 0 1 1 13 12 88 44 5 5 5 5 5 16 15 5 5 5 5 0 0 0 0 0 0 0 0 1 2 0 0 5 23 1 6 14 0 35
44 23 2 0 0 0 1 0 0 0 0 0 0 0 0 3 5 5 61 7 1 5 5 5 0 0 0 0 0 0 0 0 0 0 0 2 6 37 67 5 2 36 2
50 10 1 0 0 0 0 0 0 0 0 0 0 1 0 0 0 14 40 5 5 4 4 2 0 0 0 0 0 0 0 0 0 0 0 33 45 5 7 5 0 58 48
26 0 22 0 0 0 0 0 0 0 0 0 0 50 95 24 6 34 12 5 5 4 5 0 0 0 0 0 0 0 0 0 0 0 0 0 59 38 100 64 95 100 100
3 0 76 86 0 0 0 0 0 0 0 0 0 99 23 92 95 100 34 5 2 0 0 0 0 0 0 0 0 0 0 0 0 0 0 0 5 26 24 20 8 98 100
2 2 7 38 2 5 0 0 0 0 0 0 0 0 0 90 100 100 15 0 0 0 0 0 0 0 0 0 0 0 0 0 0 0 0 1 1 5 17 31 27 23 30
29 27 37 18 2 100 65 12 0 0 3 2 0 1 5 5 2 37 0 0 0 0 0 0 0 0 0 0 0 0 0 0 0 0 0 3 2 1 5 6 5 1 0
69 67 44 24 0 21 9 4 2 0 0 0 5 5 5 3 1 0 0 0 0 0 0 0 0 0 0 0 0 0 0 0 0 0 3 0 4 5 6 23 0 0 0
60 45 30 13 0 0 0 0 0 0 0 0 5 0 0 0 0 0 0 0 0 0 0 0 3 1 2 0 0 2 5 0 0 0 2 0 1 24 25 12 0 0 2
2 5 5 5 4 4 5 15 24 18 12 0 0 0 0 0 2 0 2 0 2 1 9 3 5 3 5 5 5 5 5 5 3 5 0 5 0 6 16 17 4 5 5
1 5 5 5 5 5 9 24 26 29 21 18 1 0 0 3 3 3 16 3 12 15 22 26 16 5 40 58 64 68 91 45 10 14 4 0 4 5 0 25 5 5 5
5 5 5 5 15 7 6 23 32 34 28 13 7 1 0 0 0 0 4 8 16 10 25 34 28 8 4 14 16 64 85 99 59 99 68 19 5 5 5 7 19 3 5
5 5 5 5 5 33 31 7 9 25 22 30 21 5 5 2 0 2 4 6 15 15 14 23 28 20 7 5 5 5 34 19 40 5 9 5 5 5 5 5 5 18 83
0 5 5 5 5 32 41 36 28 8 6 17 9 5 4 0 5 5 5 5 5 5 5 15 34 99 20 50 14 5 5 5 8 15 8 12 5 5 5 5 5 20 100
5 5 5 5 5 14 5 23 91 69 94 94 47 5 5 1 4 5 5 5 5 5 9 78 100 90 77 24 5 5 5 5 5 5 5 6 9 5 5 5 12 5 18
15 14 60 24 9 5 5 5 5 5 77 80 65 20 5 5 5 7 5 5 5 11 96 100 56 7 40 14 5 5 5 5 5 18 5 5 5 5 58 13 14 57 48
100 88 100 100 95 47 6 34 41 30 22 46 28 50 63 47 46 19 6 5 16 87 100 78 11 94 98 99 5 5 7 5 88 8 5 16 88 79 79 87 97 98 90
100 76 68 91 86 61 37 5 25 26 17 62 23 5 5 10 10 46 59 94 100 100 100 64 100 100 100 47 22 41 13 37 5 5 24 12 22 89 97 100 100 100 98
100 100 100 87 96 76 100 100 100 99 46 10 10 33 54 35 62 99 100 100 100 100 98 100 100 92 85 54 66 68 91 51 7 5 1 0 5 83 91 21 80 20 99
100 100 100 100 99 100 100 100 100 100 100 86 85 82 95 100 100 100 100 100 92 98 100 100 86 9 49 49 40 87 100 100 88 27 19 6 5 5 5 5 28 95 100
100 100 100 100 100 100 100 100 100 100 100 100 100 100 100 100 100 100 97 89 100 100 97 47 38 24 16 25 42 28 79 100 100 100 86 15 5 11 8 5 36 60 94
100 100 100 100 100 100 100 100 100 100 100 100 100 100 100 88 92 20 52 97 60 46 100 88 99 86 46 18 32 51 99 100 100 100 100 100 100 64 36 99 100 100 99
100 100 100 100 100 100 100 100 100 100 100 100 100 100 100 100 100 100 99 64 92 79 100 78 70 48 93 77 57 92 100 100 86 100 99 97 54 20 51 100 45 59 37